Regional Weather Roundup
Issued by NWS

Home | Current Version | Previous Version | Graphics & Text | Print | Product List | Glossary On
Versions: 1 2 3 4 5 6 7 8 9 10 11 12 13 14 15 16 17 18 19 20 21 22 23 24 25 26 27 28 29 30 31 32 33 34 35 36 37 38 39 40 41 42 43 44 45 46 47 48 49 50
000
ASUS43 KIND 132209
RWRIN

WEATHER ROUNDUP FOR INDIANA
NATIONAL WEATHER SERVICE INDIANAPOLIS IN
600 PM EDT SUN JUL 13 2014

NOTE: "FAIR" INDICATES FEW OR NO CLOUDS BELOW 12,000 FEET WITH NO
SIGNIFICANT WEATHER AND/OR OBSTRUCTIONS TO VISIBILITY.

* - STATION DOES NOT REPORT WEATHER SUCH AS PRECIPITATION OR FOG.

+ - STATION NOT QUALITY CONTROLLED BY THE NATIONAL WEATHER SERVICE.
    USE DATA WITH CAUTION...ESPECIALLY DEWPOINT AND RELATIVE
    HUMIDITY OBSERVATIONS.

INZ001>003-010>013-019-020-132300-
NORTHWEST INDIANA

CITY           SKY/WX    TMP DP  RH WIND       PRES   REMARKS
GARY /AIRPORT/ MOSUNNY   86  57  37 W14       29.90F
KNOX *+        MOSUNNY   79  64  59 CALM      29.90F
LA PORTE +     SUNNY     81  60  48 NW5       29.92S
MICHIGAN CITY+ SUNNY     81  57  44 W3        29.91F
MONTICELLO +   MOSUNNY   81  68  64 W6        29.92S
RENSSELAER +   MOSUNNY   81  72  74 SW8       29.93R
VALPARAISO     PTSUNNY   83  62  49 SW7       29.91F

$$

LMZ046-743>745-132300-
SOUTHERN LAKE MICHIGAN

STATION/POSITION TIME  TEMP WIND        PRES
                       AIR  DIR/SP/G
                 (UTC) (F)  (DEG/KT/KT) (MB)
MICHIGAN CITY    2200   78  220/  3/  3   N/A

$$

INZ004-005-014>016-021>024-132300-
NORTH CENTRAL INDIANA

CITY           SKY/WX    TMP DP  RH WIND       PRES   REMARKS
GOSHEN         SUNNY     82  61  48 NW6       29.91S
LOGANSPORT +   MOSUNNY   81  64  57 W6        29.93F
PERU/GRISSOM   MOSUNNY   83  70  65 SW7       29.92F
ROCHESTER +    MOSUNNY   82  66  57 SW7       29.92F
SOUTH BEND     SUNNY     82  59  45 W8        29.92S
WARSAW +       PTSUNNY   81  66  61 NW7       29.92S

$$

INZ006>009-017-018-025>027-132300-
NORTHEAST INDIANA

CITY           SKY/WX    TMP DP  RH WIND       PRES   REMARKS
ANGOLA *+      MOSUNNY   82  66  57 NW7       29.91S
AUBURN +       MOSUNNY   82  61  47 W8        29.92S
FORT WAYNE     MOSUNNY   84  61  45 NW12      29.91F
HUNTINGTON +   CLOUDY    82  69  64 W7        29.91F

$$

INZ028-029-035-036-043>045-051>053-132300-
WEST CENTRAL INDIANA

CITY           SKY/WX    TMP DP  RH WIND       PRES   REMARKS
GREENCASTLE +  MOSUNNY   81  70  69 NW3       29.94F
LAFAYETTE      SUNNY     83  67  58 NW8       29.92F
TERRE HAUTE    PTSUNNY   83  72  69 NW5       29.92F

$$

INZ030>032-037>040-046>048-054>057-064-065-132300-
CENTRAL INDIANA

CITY           SKY/WX    TMP DP  RH WIND       PRES   REMARKS
CP ATTERBURY + PTSUNNY   82  70  65 NW8       29.93S HAZE
INDIANAPOLIS   PTSUNNY   83  71  67 NW10      29.92F
-EAGLE CREEK   MOSUNNY   83  69  62 W10       29.92F
KOKOMO *+      SUNNY     84  68  58 NW10      29.92S
MARION +       SUNNY     82  66  58 W9        29.93F
MT COMFORT *+  MOSUNNY   82  73  74 W12G17    29.93F
SHELBYVILLE    MOSUNNY   84  73  69 NW13G21   29.92S
ZIONSVILLE +   MOSUNNY   84  67  57 W7        29.94F

$$

INZ033-034-041-042-049-050-058-059-132300-
EAST CENTRAL INDIANA

CITY           SKY/WX    TMP DP  RH WIND       PRES   REMARKS
MUNCIE         MOSUNNY   83  69  62 W9        29.92F

$$

INZ060-061-067>069-081>083-085>088-132300-
SOUTHWEST INDIANA

CITY           SKY/WX    TMP DP  RH WIND       PRES   REMARKS
EVANSVILLE     MOSUNNY   91  71  51 SW15      29.92F HX  97
HUNTINGBURG *+ SUNNY     91  72  52 W14G20    29.93S HX  98
WASHINGTON +   MOSUNNY   88  75  65 W8G16     29.91S HX  97

$$

INZ062-063-066-070>080-084-089>092-132300-
SOUTH CENTRAL AND SOUTHEAST INDIANA

CITY           SKY/WX    TMP DP  RH WIND       PRES   REMARKS
BEDFORD +      TSTM      77  68  73 CALM      29.94R
BLOOMINGTON    PTSUNNY   83  72  69 VRB5      29.94S

$$




USA.gov is the U.S. government's official web portal to all federal, state and local government web resources and services.